This is the latest recevied weather packets stored in our database for station/object BAGASKAR. If no packets are shown the sender has not sent any weather packets the latest 10 day(s).
| Time | Temp. | Humidity | Pressure | Rain* | Wind** | Luminosity | Snow |
|---|---|---|---|---|---|---|---|
| 1778208449 | 5.56° C | 68% | 1023.4 hPa | - | - | - | - |
| 1778207249 | 5.56° C | 66% | 1023.1 hPa | - | - | - | - |
| 1778206049 | 5.56° C | 65% | 1022.4 hPa | - | - | - | - |
| 1778204849 | 5.56° C | 64% | 1022.6 hPa | - | - | - | - |
| 1778203649 | 5.56° C | 61% | 1022.3 hPa | - | - | - | - |
| 1778202449 | 5.56° C | 63% | 1022.2 hPa | - | - | - | - |
| 1778201249 | 6.11° C | 61% | 1021.8 hPa | - | - | - | - |
| 1778200049 | 6.11° C | 65% | 1021.6 hPa | - | - | - | - |
| 1778198849 | 6.11° C | 61% | 1021.4 hPa | - | - | - | - |
| 1778197649 | 6.67° C | 61% | 1021.1 hPa | - | - | - | - |
| 1778196449 | 6.67° C | 59% | 1020.9 hPa | - | - | - | - |
| 1778195248 | 6.67° C | 56% | 1020.6 hPa | - | - | - | - |
| 1778194048 | 7.22° C | 58% | 1020.3 hPa | - | - | - | - |
| 1778192849 | 7.78° C | 57% | 1020.1 hPa | - | - | - | - |
| 1778191648 | 7.78° C | 51% | 1019.9 hPa | - | - | - | - |
| 1778190448 | 7.78° C | 46% | 1019.7 hPa | - | - | - | - |
| 1778189248 | 7.78° C | 46% | 1019.5 hPa | - | - | - | - |
| 1778186848 | 8.33° C | 45% | 1018.9 hPa | - | - | - | - |
| 1778185648 | 8.33° C | 44% | 1018.8 hPa | - | - | - | - |
| 1778184449 | 8.33° C | 43% | 1018.4 hPa | - | - | - | - |
| 1778183248 | 7.78° C | 49% | 1018 hPa | - | - | - | - |
| 1778182048 | 7.22° C | 63% | 1017.6 hPa | - | - | - | - |
| 1778180848 | 6.67° C | 78% | 1017.3 hPa | - | - | - | - |
| 1778179648 | 7.22° C | 89% | 1017.1 hPa | - | - | - | - |
| 1778178447 | 7.22° C | 70% | 1016.9 hPa | - | - | - | - |
* Rain since midnight (hover to see other rain measurements)
** Current wind speed in m/s (hover to see current wind gust speed)